TimeMST,TemperatureF,Dew PointF,Humidity,Sea Level PressureIn,VisibilityMPH,Wind Direction,Wind SpeedMPH,Gust SpeedMPH,PrecipitationIn,Events,Conditions,WindDirDegrees,DateUTC
12:15 AM,62.6,51.8,68,30.36,10.0,SE,4.6,-,N/A,,Clear,130,2013-07-11 07:15:00
12:35 AM,60.8,53.6,77,30.35,10.0,SSE,5.8,-,N/A,,Clear,150,2013-07-11 07:35:00
12:55 AM,62.6,53.6,72,30.34,10.0,SE,5.8,-,N/A,,Clear,140,2013-07-11 07:55:00
1:15 AM,64.4,53.6,68,30.34,10.0,ESE,10.4,-,N/A,,Clear,120,2013-07-11 08:15:00
1:35 AM,64.4,53.6,68,30.34,10.0,ESE,3.5,-,N/A,,Clear,120,2013-07-11 08:35:00
1:55 AM,62.6,53.6,72,30.33,10.0,SE,6.9,-,N/A,,Clear,140,2013-07-11 08:55:00
2:15 AM,62.6,53.6,72,30.33,10.0,SSE,4.6,-,N/A,,Clear,150,2013-07-11 09:15:00
2:35 AM,60.8,53.6,77,30.32,10.0,South,3.5,-,N/A,,Clear,170,2013-07-11 09:35:00
2:55 AM,60.8,53.6,77,30.31,10.0,SSE,5.8,-,N/A,,Clear,160,2013-07-11 09:55:00
3:15 AM,60.8,53.6,77,30.32,10.0,SE,6.9,-,N/A,,Clear,140,2013-07-11 10:15:00
3:35 AM,59.0,53.6,82,30.32,10.0,SSE,5.8,-,N/A,,Clear,160,2013-07-11 10:35:00
3:55 AM,59.0,53.6,82,30.33,10.0,SSE,6.9,-,N/A,,Mostly Cloudy,160,2013-07-11 10:55:00
4:15 AM,64.4,55.4,73,30.33,10.0,SSW,9.2,-,N/A,,Overcast,200,2013-07-11 11:15:00
4:35 AM,64.4,55.4,73,30.33,10.0,SSE,6.9,-,N/A,,Mostly Cloudy,160,2013-07-11 11:35:00
4:55 AM,62.6,55.4,77,30.34,10.0,SSE,5.8,-,N/A,,Mostly Cloudy,150,2013-07-11 11:55:00
5:15 AM,62.6,55.4,77,30.34,10.0,South,6.9,-,N/A,,Scattered Clouds,170,2013-07-11 12:15:00
5:35 AM,62.6,55.4,77,30.35,10.0,SSE,5.8,-,N/A,,Clear,150,2013-07-11 12:35:00
5:55 AM,62.6,55.4,77,30.35,10.0,South,6.9,-,N/A,,Clear,190,2013-07-11 12:55:00
6:15 AM,62.6,55.4,77,30.34,10.0,SSW,4.6,-,N/A,,Clear,200,2013-07-11 13:15:00
6:35 AM,64.4,55.4,73,30.34,10.0,South,3.5,-,N/A,,Partly Cloudy,190,2013-07-11 13:35:00
6:55 AM,64.4,55.4,73,30.34,10.0,Calm,Calm,-,N/A,,Partly Cloudy,0,2013-07-11 13:55:00
7:15 AM,64.4,55.4,73,30.34,10.0,Calm,Calm,-,N/A,,Scattered Clouds,0,2013-07-11 14:15:00
7:35 AM,64.4,57.2,77,30.33,10.0,NNE,3.5,-,N/A,,Scattered Clouds,30,2013-07-11 14:35:00
7:55 AM,64.4,57.2,77,30.34,10.0,Calm,Calm,-,N/A,,Mostly Cloudy,0,2013-07-11 14:55:00
8:15 AM,64.4,57.2,77,30.35,10.0,Calm,Calm,-,N/A,,Overcast,0,2013-07-11 15:15:00
8:35 AM,66.2,57.2,73,30.35,10.0,SSW,4.6,-,N/A,,Overcast,200,2013-07-11 15:35:00
8:55 AM,66.2,57.2,73,30.35,10.0,WSW,4.6,-,N/A,,Scattered Clouds,240,2013-07-11 15:55:00
9:15 AM,68.0,57.2,68,30.35,10.0,SSW,3.5,-,N/A,,Partly Cloudy,210,2013-07-11 16:15:00
9:35 AM,68.0,57.2,68,30.36,10.0,SW,6.9,-,N/A,,Scattered Clouds,220,2013-07-11 16:35:00
9:55 AM,68.0,57.2,68,30.37,10.0,SSW,13.8,18.4,N/A,,Mostly Cloudy,210,2013-07-11 16:55:00
10:15 AM,71.6,57.2,60,30.37,10.0,SSW,9.2,-,N/A,,Scattered Clouds,210,2013-07-11 17:15:00
10:35 AM,69.8,57.2,64,30.36,10.0,SSW,6.9,-,N/A,,Scattered Clouds,210,2013-07-11 17:35:00
10:55 AM,71.6,57.2,60,30.36,10.0,SSW,6.9,-,N/A,,Scattered Clouds,200,2013-07-11 17:55:00
11:15 AM,71.6,57.2,60,30.35,10.0,SW,9.2,-,N/A,,Scattered Clouds,220,2013-07-11 18:15:00
11:35 AM,71.6,55.4,57,30.35,10.0,SW,11.5,-,N/A,,Partly Cloudy,230,2013-07-11 18:35:00
11:55 AM,73.4,55.4,53,30.35,10.0,SW,9.2,16.1,N/A,,Scattered Clouds,220,2013-07-11 18:55:00
12:15 PM,73.4,55.4,53,30.34,10.0,SW,6.9,18.4,N/A,,Partly Cloudy,220,2013-07-11 19:15:00
12:35 PM,75.2,53.6,47,30.33,10.0,WSW,5.8,17.3,N/A,,Scattered Clouds,240,2013-07-11 19:35:00
12:55 PM,75.2,55.4,50,30.33,10.0,WSW,13.8,19.6,N/A,,Scattered Clouds,240,2013-07-11 19:55:00
1:15 PM,75.2,53.6,47,30.33,10.0,SW,12.7,17.3,N/A,,Mostly Cloudy,220,2013-07-11 20:15:00
1:35 PM,75.2,53.6,47,30.32,10.0,South,9.2,-,N/A,,Mostly Cloudy,180,2013-07-11 20:35:00
1:55 PM,77.0,53.6,44,30.31,10.0,WSW,6.9,19.6,N/A,,Scattered Clouds,250,2013-07-11 20:55:00
2:15 PM,75.2,53.6,47,30.30,10.0,South,13.8,-,N/A,,Scattered Clouds,180,2013-07-11 21:15:00
2:35 PM,73.4,55.4,53,30.30,10.0,SSW,12.7,19.6,N/A,,Mostly Cloudy,210,2013-07-11 21:35:00
2:55 PM,64.4,57.2,77,30.31,4.0,SSW,11.5,-,0.01,,Overcast,210,2013-07-11 21:55:00
3:15 PM,66.2,59.0,78,30.30,10.0,South,8.1,-,N/A,,Scattered Clouds,190,2013-07-11 22:15:00
3:35 PM,71.6,57.2,60,30.29,10.0,SSW,15.0,19.6,N/A,,Clear,200,2013-07-11 22:35:00
3:55 PM,71.6,57.2,60,30.29,10.0,SW,16.1,23.0,N/A,,Partly Cloudy,220,2013-07-11 22:55:00
4:15 PM,71.6,57.2,60,30.28,10.0,South,11.5,-,N/A,,Scattered Clouds,190,2013-07-11 23:15:00
4:35 PM,69.8,57.2,64,30.29,10.0,SSW,13.8,18.4,N/A,,Scattered Clouds,200,2013-07-11 23:35:00
4:55 PM,68.0,57.2,68,30.28,10.0,South,10.4,-,N/A,,Scattered Clouds,190,2013-07-11 23:55:00
5:15 PM,71.6,57.2,60,30.27,10.0,SW,13.8,-,N/A,,Partly Cloudy,220,2013-07-12 00:15:00
5:35 PM,69.8,57.2,64,30.28,10.0,WSW,10.4,-,N/A,,Partly Cloudy,240,2013-07-12 00:35:00
5:55 PM,66.2,57.2,73,30.29,9.0,SSW,8.1,-,N/A,,Mostly Cloudy,200,2013-07-12 00:55:00
6:15 PM,64.4,59.0,83,30.29,10.0,SSW,9.2,-,N/A,,Mostly Cloudy,200,2013-07-12 01:15:00
6:35 PM,64.4,57.2,77,30.29,10.0,South,5.8,-,N/A,,Partly Cloudy,180,2013-07-12 01:35:00
6:55 PM,64.4,57.2,77,30.29,10.0,Calm,Calm,-,N/A,,Clear,0,2013-07-12 01:55:00
7:15 PM,66.2,57.2,73,30.30,10.0,SSW,8.1,-,N/A,,Partly Cloudy,200,2013-07-12 02:15:00
7:35 PM,66.2,57.2,73,30.29,10.0,SSW,8.1,-,N/A,,Clear,200,2013-07-12 02:35:00
7:55 PM,64.4,57.2,77,30.29,10.0,South,6.9,-,N/A,,Clear,190,2013-07-12 02:55:00
8:15 PM,64.4,57.2,77,30.29,10.0,South,9.2,-,N/A,,Clear,190,2013-07-12 03:15:00
8:35 PM,64.4,57.2,77,30.29,10.0,SSW,8.1,-,N/A,,Clear,210,2013-07-12 03:35:00
8:55 PM,64.4,57.2,77,30.30,10.0,SSW,6.9,-,N/A,,Clear,210,2013-07-12 03:55:00
9:15 PM,62.6,57.2,82,30.31,10.0,SW,5.8,-,N/A,,Clear,220,2013-07-12 04:15:00
9:35 PM,62.6,57.2,82,30.31,10.0,SSW,6.9,-,N/A,,Clear,210,2013-07-12 04:35:00
9:55 PM,62.6,57.2,82,30.32,10.0,SSW,4.6,-,N/A,,Clear,210,2013-07-12 04:55:00
10:15 PM,62.6,55.4,77,30.31,10.0,Calm,Calm,-,N/A,,Clear,0,2013-07-12 05:15:00
10:35 PM,60.8,55.4,82,30.32,10.0,Calm,Calm,-,N/A,,Clear,0,2013-07-12 05:35:00
10:55 PM,59.0,55.4,88,30.31,10.0,Calm,Calm,-,N/A,,Scattered Clouds,0,2013-07-12 05:55:00
11:15 PM,60.8,55.4,82,30.31,10.0,Calm,Calm,-,N/A,,Mostly Cloudy,0,2013-07-12 06:15:00
11:35 PM,60.8,55.4,82,30.31,10.0,Calm,Calm,-,N/A,,Mostly Cloudy,0,2013-07-12 06:35:00
11:55 PM,60.8,55.4,82,30.31,10.0,Calm,Calm,-,N/A,,Clear,0,2013-07-12 06:55:00